LEMUR-2-YUASA (43561 NORAD) Tracking and Keplerian Element Data

This shows tracking and keplerian element data for the satellite.

Feedback or suggestion? Click here.




ElementValue
Catalog43561
NameLEMUR-2-YUASA
Epoch Orbit1875
Epoch Day323.1111479
Epoch Year2018
RAAN350.8862
Inclination51.6413
Eccentricity0.000881
Argument of Perigee52.2062
Mean Anonmoly307.9714
Mean Motion15.28334015
Decay Rate2.497E-05
L11 43561U 18046H 18323.11114790 .00002497 00000-0 10183-3 0 9997
L22 43561 51.6413 350.8862 0008810 52.2062 307.9714 15.28334015 18751

Live tracking and technical data element details for LEMUR-2-YUASA (NORAD 43561). LEMUR-2-YUASA can be tracked NOW for your location showing map with azimuth and elevation plus other details from your city location.

Track the satellite on the map from your city or location and see movement details for azimuth, elevation, latitude, longitude, range, height, and movement on the map or in text.







IsCatalogInMostPopularTable: catalog: 43561, numindb: 63
Update: records affected: 1



GetName: 43561 LEMUR-2-YUASA

Hit Count: updated at: Tue, 20 Nov 2018 11:47:36 GMT